Beaufort, NC

7:58 PM EDT on May 20, 2018 (GMT -0400)
Smith

Weather History for KMRH - June, 2014

Change the Weather History Date:

Friday, June 13, 2014

  Actual Average Record
Temperature  
Mean Temperature 81 °F -  
Max Temperature 84 °F 83 °F 93 °F (1964)
Min Temperature 78 °F 66 °F 56 °F (1979)
Cooling Degree Days 16    
Growing Degree Days 31 (Base 50)    
Moisture  
Dew Point 74 °F    
Average Humidity 82    
Maximum Humidity 88    
Minimum Humidity 72    
Precipitation  
Precipitation 0.00 in - - ()
Sea Level Pressure  
Sea Level Pressure 29.87 in    
Wind  
Wind Speed 16 mph (SW)    
Max Wind Speed 22 mph    
Max Gust Speed 28 mph    
Visibility 9 miles    
Events      
Averages and records for this station are not official NWS values.
T = Trace of Precipitation, MM = Missing Value Source: NWS Daily Summary

Daily Weather History Graph

Daily Weather History Graph

Search for Another Location

Airport or City:

Astronomy

Jun. 13, 2014 Rise Set
Actual Time 5:52 AM EDT 8:20 PM EDT
Civil Twilight 5:23 AM EDT 8:50 PM EDT
Nautical Twilight 4:46 AM EDT 9:26 PM EDT
Astronomical Twilight 4:06 AM EDT 10:06 PM EDT
Moon 8:52 PM EDT (6/13) 6:26 AM EDT (6/13)
Length of Visible Light 15h 26m
Length of Day
14h 27m
Full, 100% of the Moon is Illuminated
Jun 13
Full
Jun 19
Last Quarter
Jun 27
New
Jul 5
First Quarter
Jul 12
Full

Hourly Weather History & Observations

Time (EDT) Temp. Heat Index Dew Point Humidity Pressure Visibility Wind Dir Wind Speed Gust Speed Precip Events Conditions
12:30 AM 78.1 °F - 73.0 °F 84% 29.88 in 10.0 mi SW 17.3 mph - N/A   Mostly Cloudy
12:58 AM 78.1 °F - 73.0 °F 84% 29.88 in 10.0 mi SW 18.4 mph 25.3 mph N/A   Mostly Cloudy
2:39 AM 78.1 °F - 73.0 °F 84% 29.86 in 10.0 mi SW 13.8 mph - N/A   Scattered Clouds
2:58 AM 79.0 °F - 73.9 °F 84% 29.86 in 10.0 mi SW 15.0 mph - N/A   Mostly Cloudy
3:58 AM 78.1 °F - 73.9 °F 87% 29.86 in 10.0 mi SW 13.8 mph - N/A   Overcast
4:31 AM 78.1 °F - 73.9 °F 87% 29.86 in 10.0 mi SW 11.5 mph - N/A   Scattered Clouds
4:58 AM 78.1 °F - 73.9 °F 87% 29.86 in 10.0 mi SW 11.5 mph - N/A   Scattered Clouds
5:13 AM 78.1 °F - 73.9 °F 87% 29.86 in 10.0 mi SW 11.5 mph - N/A   Mostly Cloudy
5:58 AM 78.1 °F - 73.0 °F 84% 29.87 in 10.0 mi SSW 12.7 mph - N/A   Mostly Cloudy
6:07 AM 78.1 °F - 73.0 °F 84% 29.87 in 10.0 mi SW 15.0 mph - N/A   Mostly Cloudy
6:13 AM 78.1 °F - 73.0 °F 84% 29.87 in 10.0 mi SW 13.8 mph - N/A   Scattered Clouds
6:58 AM 78.1 °F - 72.0 °F 81% 29.88 in 9.0 mi SW 15.0 mph - N/A   Clear
7:26 AM 79.0 °F - 72.0 °F 79% 29.89 in 9.0 mi SW 15.0 mph - N/A   Mostly Cloudy
7:58 AM 79.0 °F - 72.0 °F 79% 29.90 in 9.0 mi SW 15.0 mph - N/A   Mostly Cloudy
8:48 AM 80.1 °F 84.2 °F 73.0 °F 79% 29.89 in 9.0 mi SW 16.1 mph - N/A   Mostly Cloudy
8:58 AM 81.0 °F 86.2 °F 73.9 °F 79% 29.90 in 8.0 mi SSW 15.0 mph - N/A   Mostly Cloudy
9:58 AM 81.0 °F 86.7 °F 75.0 °F 82% 29.90 in 8.0 mi SW 15.0 mph - N/A   Mostly Cloudy
10:49 AM 82.0 °F 87.9 °F 73.9 °F 76% 29.90 in 8.0 mi SW 12.7 mph - N/A   Scattered Clouds
10:58 AM 82.0 °F 87.4 °F 73.0 °F 74% 29.90 in 9.0 mi WSW 15.0 mph - N/A   Partly Cloudy
11:58 AM 82.9 °F 88.8 °F 73.0 °F 72% 29.91 in 10.0 mi SW 16.1 mph - N/A   Partly Cloudy
12:58 PM 82.9 °F 90.8 °F 75.9 °F 79% 29.89 in 9.0 mi SSW 18.4 mph - N/A   Partly Cloudy
1:58 PM 81.0 °F 86.7 °F 75.0 °F 82% 29.88 in 8.0 mi SSW 17.3 mph - N/A   Partly Cloudy
2:13 PM 82.9 °F 90.8 °F 75.9 °F 79% 29.87 in 8.0 mi SSW 15.0 mph - N/A   Mostly Cloudy
2:36 PM 82.9 °F 90.2 °F 75.0 °F 77% 29.86 in 8.0 mi SSW 18.4 mph - N/A   Scattered Clouds
2:58 PM 82.9 °F 90.8 °F 75.9 °F 79% 29.86 in 8.0 mi SSW 17.3 mph - N/A   Mostly Cloudy
3:44 PM 82.0 °F 88.6 °F 75.0 °F 79% 29.85 in 8.0 mi SSW 18.4 mph 25.3 mph N/A   Mostly Cloudy
3:58 PM 84.0 °F 92.6 °F 75.9 °F 76% 29.85 in 7.0 mi SSW 18.4 mph 24.2 mph N/A   Mostly Cloudy
5:58 PM 80.1 °F 84.5 °F 73.9 °F 81% 29.85 in 7.0 mi SSW 21.9 mph 27.6 mph N/A   Partly Cloudy
6:58 PM 81.0 °F 86.2 °F 73.9 °F 79% 29.84 in 7.0 mi SSW 19.6 mph - N/A   Scattered Clouds
7:58 PM 79.0 °F - 75.0 °F 88% 29.85 in 8.0 mi SSW 16.1 mph 25.3 mph N/A   Partly Cloudy
8:58 PM 79.0 °F - 73.9 °F 84% 29.88 in 10.0 mi SW 18.4 mph - N/A   Clear
9:58 PM 79.0 °F - 73.9 °F 84% 29.88 in 10.0 mi SW 15.0 mph - N/A   Clear
10:58 PM 79.0 °F - 73.9 °F 84% 29.88 in 10.0 mi SW 11.5 mph - N/A   Clear
11:58 PM 79.0 °F - 73.9 °F 84% 29.90 in 10.0 mi WSW 13.8 mph - N/A   Mostly Cloudy